This demonstration page uses our WeatherBlox Daily Observations layout. Learn more.

Left ArrowRight Arrow

44.8408, -93.29828

Hourly Observations for July 1, 2022

Temp ( °F °C ) Dew Point ( °F °C ) Humidity (%) Winds ( mph kmh ) Pressure ( in mb ) Visibility ( mi km ) Precip ( " mm )
12:53 am 00:53 Clear 71 21.7 53 11.7 53 53 WNW 5 7 29.95 1014 10 16 0.00 0.00
1:53 am 01:53 Clear 69 20.6 53 11.7 57 57 NNW 6 9 29.96 1015 10 16 0.00 0.00
2:53 am 02:53 Clear 69 20.6 53 11.7 57 57 NNW 7 11 29.96 1015 10 16 0.00 0.00
3:53 am 03:53 Clear 67 19.4 54 12.2 63 63 NNW 3 6 29.96 1015 10 16 0.00 0.00
4:53 am 04:53 Clear 66 18.9 53 11.7 63 63 N 7 11 29.98 1015 10 16 0.00 0.00
5:53 am 05:53 Sunny 65 18.3 53 11.7 66 66 NNE 6 9 29.99 1016 10 16 0.00 0.00
6:53 am 06:53 Mostly Sunny 67 19.4 54 12.2 63 63 NE 5 7 30.01 1016 10 16 0.00 0.00
7:53 am 07:53 Partly Cloudy 69 20.6 53 11.7 57 57 E 6 9 30.01 1016 10 16 0.00 0.00
8:53 am 08:53 Partly Cloudy 71 21.7 53 11.7 53 53 Calm 30.01 1016 10 16 0.00 0.00
9:53 am 09:53 Partly Cloudy 73 22.8 53 11.7 50 50 SW 7 11 30.01 1016 10 16 0.00 0.00
10:53 am 10:53 Partly Cloudy 77 25 51 10.6 40 40 NW 6 9 30.00 1016 10 16 0.00 0.00
11:53 am 11:53 Partly Cloudy 80 26.7 50 10 35 35 W 16 26 30.00 1016 10 16 0.00 0.00
12:53 pm 12:53 Partly Cloudy 80 26.7 48 8.9 33 33 W 15 24 29.99 1016 10 16 0.00 0.00
1:53 pm 13:53 Mostly Cloudy 82 27.8 48 8.9 31 31 NW 16 26 29.97 1015 10 16 0.00 0.00
2:53 pm 14:53 Mostly Cloudy 83 28.3 47 8.3 28 28 WNW 16 26 29.97 1015 10 16 0.00 0.00
3:53 pm 15:53 Partly Cloudy 85 29.4 44 6.7 24 24 NW 17 28 29.96 1015 10 16 0.00 0.00
4:53 pm 16:53 Partly Cloudy 83 28.3 44 6.7 25 25 NW 15 24 29.97 1015 10 16 0.00 0.00
5:53 pm 17:53 Partly Cloudy 83 28.3 44 6.7 25 25 NNW 17 28 29.97 1015 10 16 0.00 0.00
6:53 pm 18:53 Mostly Sunny 81 27.2 45 7.2 28 28 NW 15 24 29.96 1015 10 16 0.00 0.00
7:53 pm 19:53 Sunny 79 26.1 45 7.2 30 30 NNW 12 19 29.96 1015 10 16 0.00 0.00
8:53 pm 20:53 Sunny 76 24.4 47 8.3 36 36 NNW 6 9 29.96 1014 10 16 0.00 0.00
9:53 pm 21:53 Clear 76 24.4 46 7.8 35 35 VRB 3 6 29.96 1015 10 16 0.00 0.00
10:53 pm 22:53 Clear 74 23.3 47 8.3 38 38 Calm 29.97 1015 10 16 0.00 0.00
11:53 pm 23:53 Clear 73 22.8 48 8.9 41 41 Calm 29.97 1015 10 16 0.00 0.00

Powered by AerisWeather